Location: Unspecified
(55.7024°N, 37.6611°E)
Time: 18:20:02
(UTC+03:00)

Vanguard 2 Rocket - All Passes

Search period start: 23 June 2025 00:00
Search period end: 03 July 2025 00:00
Orbit: 555 x 3292 km, 32.9° (Epoch: 23 June)

Date Brightness Start Highest point End Pass type
(mag) Time Alt. Az. Time Alt. Az. Time Alt. Az.
23 Jun - 14:48:15 10° SSW 14:52:34 15° SSE 14:58:05 10° SE daylight
23 Jun - 16:58:01 10° SW 17:04:28 19° S 17:13:11 10° SE daylight
23 Jun - 19:11:43 10° SW 19:17:11 14° SSW 19:23:40 10° S daylight
24 Jun - 13:48:23 10° SSE 13:49:09 10° SSE 13:49:57 10° SSE daylight
24 Jun - 15:55:09 10° SSW 16:00:27 18° S 16:07:33 10° SE daylight
24 Jun - 18:07:06 10° SW 18:12:50 15° SSW 18:19:58 10° SSE daylight
25 Jun - 14:52:53 10° SSW 14:56:45 14° SSE 15:01:35 10° SE daylight
25 Jun - 17:03:24 10° SW 17:08:39 16° S 17:15:21 10° SSE daylight
26 Jun - 13:52:25 10° SSE 13:53:18 10° SSE 13:54:12 10° SSE daylight
26 Jun - 16:00:21 10° SSW 16:04:42 15° S 16:10:13 10° SSE daylight
26 Jun - 18:14:44 10° SSW 18:16:59 11° SSW 18:19:26 10° S daylight
27 Jun - 14:57:57 10° SSW 15:01:00 13° S 15:04:39 10° SSE daylight
27 Jun - 17:09:53 10° SSW 17:12:54 12° SSW 17:16:23 10° S daylight
28 Jun - 16:06:26 10° SSW 16:09:00 12° S 16:11:59 10° SSE daylight
29 Jun - 15:04:13 10° S 15:05:20 10° S 15:06:31 10° S daylight
